Theta_e
330 330 331 331 330 328 330 330 330 330 330 330 330 329 329 328 328 328 328 328 329 329 329 329 327 328 327 327 328 329 328 328 329 327 328 327 326 325 324 324 323 322 321
330 330 331 330 328 329 330 330 331 330 330 330 330 330 328 328 327 327 328 327 327 327 326 327 327 329 330 327 327 329 329 328 328 327 328 327 325 324 324 324 323 323 324
329 330 331 330 329 329 329 330 331 330 330 329 330 329 328 328 326 327 327 326 326 326 328 328 327 328 329 330 329 330 329 328 327 327 327 326 325 325 324 324 324 324 324
328 330 331 331 329 329 329 330 331 331 330 330 330 330 329 326 326 326 326 325 324 325 326 326 327 329 329 329 329 329 330 327 327 327 326 326 324 325 325 325 325 323 323
328 329 331 331 329 329 329 330 331 331 330 328 328 328 329 327 327 326 324 324 324 323 324 324 326 327 328 329 329 329 328 328 327 326 327 325 326 326 326 326 325 324 323
328 329 330 329 329 330 330 330 330 331 328 328 328 328 328 327 326 326 326 324 325 325 325 325 325 326 327 327 328 327 327 327 326 326 326 326 327 326 326 326 322 321 321
327 328 329 329 330 329 329 328 330 330 329 328 327 328 326 326 325 324 325 326 325 324 325 325 325 326 326 326 327 327 326 326 326 325 325 326 326 326 326 326 322 322 323
326 327 329 329 331 331 327 328 328 330 330 329 327 326 326 325 325 326 325 326 325 325 325 325 325 326 326 327 327 327 326 326 326 326 326 325 326 326 326 327 323 320 319
326 326 328 329 330 331 327 327 326 328 328 329 327 326 326 325 326 326 326 326 326 326 326 326 324 324 326 326 325 324 325 325 325 326 327 327 326 327 326 325 318 321 319
326 325 327 328 329 331 328 326 325 328 327 328 328 325 326 325 325 326 326 327 327 325 324 324 324 325 322 322 324 324 323 322 320 322 320 323 325 322 319 324 322 325 322
325 325 326 327 329 330 329 325 325 326 326 326 327 327 325 325 325 325 326 326 326 326 325 325 326 326 323 322 323 323 322 320 320 320 321 321 320 319 320 322 323 323 319
325 325 325 327 328 329 329 325 325 326 325 325 325 327 326 327 327 326 326 327 326 326 326 325 325 326 324 321 322 324 323 322 319 319 318 317 316 315 318 321 321 317 314
325 325 325 326 327 328 329 325 324 324 324 324 324 324 324 324 327 327 325 325 326 328 327 327 325 325 325 322 321 320 322 321 319 316 314 313 312 310 310 311 311 312 311
326 326 325 325 326 328 328 326 325 324 323 321 322 323 323 323 326 326 326 326 326 326 326 325 325 325 324 320 319 319 318 318 317 316 315 312 310 310 309 309 308 306 303
326 326 325 324 324 327 328 328 326 325 324 323 320 322 323 323 324 326 327 326 326 326 326 325 324 322 319 317 318 317 317 315 316 316 314 312 311 311 310 309 308 307 306
326 325 324 323 323 324 326 326 326 326 324 323 322 320 321 322 321 323 324 326 326 326 324 324 324 322 319 318 318 317 316 315 316 315 314 313 312 311 310 309 308 307 303
325 325 324 323 323 323 324 324 325 324 325 324 323 322 321 318 319 322 322 323 322 321 321 322 324 322 320 319 318 318 318 317 316 315 314 313 312 312 308 309 308 305 301
325 323 323 323 322 322 323 323 323 324 325 325 324 324 324 323 323 320 319 320 318 319 322 322 321 321 321 320 318 316 316 316 315 315 314 313 312 311 310 310 307 303 298
324 322 323 323 322 322 322 323 323 323 323 324 325 323 324 323 324 324 323 318 317 316 317 318 320 320 319 319 318 317 315 314 314 313 313 312 312 312 312 310 306 300 298
323 321 322 322 322 322 322 323 323 323 323 323 324 322 321 322 320 319 320 318 322 320 316 314 315 316 317 317 316 314 314 312 312 312 312 312 312 311 311 309 304 298 295
323 320 320 322 322 322 322 322 323 323 323 323 323 322 322 320 322 322 321 320 321 322 320 318 315 313 313 313 313 313 312 312 312 311 311 311 311 309 309 305 299 296 295
323 322 319 322 322 322 323 322 323 323 323 323 323 323 321 320 321 321 321 320 320 321 321 320 319 317 315 313 312 312 312 312 311 309 310 310 308 308 304 300 297 296 295
323 322 321 322 322 322 322 323 323 323 323 323 323 323 319 319 321 322 322 321 320 320 320 319 319 319 318 318 316 314 313 312 311 311 310 309 308 304 301 300 298 295 295
324 323 322 323 322 322 322 323 323 323 323 323 323 323 322 319 320 321 322 322 321 320 319 318 317 318 318 318 317 317 316 314 313 311 310 309 307 303 301 300 298 296 295
324 324 323 324 323 323 323 323 324 324 323 323 324 324 323 322 321 321 321 321 321 320 319 318 317 316 316 316 317 317 316 315 314 313 311 309 306 303 301 299 297 296 296
324 325 324 324 324 323 324 324 324 324 324 323 323 324 324 323 322 321 321 321 320 320 319 318 318 317 317 316 315 315 314 314 313 311 310 307 304 302 300 298 297 296 297
Wind_Speed
8 6 4 3 3 3 5 4 4 3 5 6 10 10 10 11 10 10 9 10 9 9 9 10 11 13 14 16 15 13 8 7 9 8 10 37 40 37 34 31 27 24 20
9 6 4 4 4 5 5 4 5 5 6 7 9 9 10 12 12 10 11 10 10 9 9 9 12 12 13 13 15 11 11 14 22 16 21 27 34 35 34 30 25 21 19
9 7 5 5 4 7 5 5 5 7 6 6 9 11 11 12 12 10 10 11 10 8 9 9 10 11 10 11 11 11 12 16 21 21 14 24 34 35 31 26 22 18 14
10 9 6 6 6 8 6 6 5 6 8 8 8 9 11 12 11 11 11 12 12 9 9 11 11 10 11 12 10 11 13 20 23 22 24 24 32 27 28 26 19 18 14
11 11 8 7 8 9 7 7 7 6 8 9 10 10 10 12 12 13 13 12 13 12 11 11 10 11 13 12 13 13 18 19 21 21 19 23 20 24 20 20 17 22 16
12 12 10 8 9 8 7 6 7 8 8 9 9 10 9 10 14 16 15 13 11 12 13 12 13 13 12 11 14 17 19 25 23 20 17 21 19 22 21 19 20 14 8
14 12 11 9 9 9 8 7 7 8 9 8 10 9 12 14 16 17 17 13 13 14 17 18 17 18 18 13 15 17 21 25 28 27 26 23 25 26 22 19 18 11 13
15 13 12 12 10 10 10 9 9 9 9 8 9 10 15 15 16 17 18 16 17 18 20 23 22 22 21 25 25 23 21 21 19 20 24 27 25 26 21 15 15 16 16
17 15 15 14 13 11 11 10 7 10 9 8 7 9 18 18 14 18 17 16 18 21 23 21 23 21 22 20 19 16 17 17 17 16 17 19 18 19 17 19 18 18 12
19 18 16 16 14 13 12 12 9 9 10 10 8 14 18 18 15 15 19 17 19 21 19 18 20 18 19 13 13 17 16 17 18 21 19 20 20 19 19 12 17 13 10
20 19 18 17 15 13 14 11 12 11 12 11 12 12 14 18 18 16 15 16 20 18 15 17 13 11 11 13 15 16 19 22 21 19 17 17 16 16 13 12 12 9 10
21 20 19 18 16 14 15 13 12 12 12 12 12 12 11 13 13 16 17 15 18 17 16 14 10 9 10 12 13 14 18 20 16 15 15 14 13 12 13 14 13 12 9
22 21 21 19 17 16 16 15 14 13 12 11 11 12 11 10 13 13 14 18 18 13 12 13 13 8 7 9 10 10 13 15 16 15 14 12 12 14 17 17 16 14 14
25 22 21 21 19 17 16 16 15 15 13 13 12 11 11 11 11 14 14 16 17 13 14 16 11 8 7 8 10 11 9 10 11 12 13 12 14 14 13 13 13 12 12
25 23 22 22 23 20 18 18 17 17 16 15 14 14 14 12 13 15 16 16 16 15 15 14 11 8 8 7 7 9 9 11 11 12 14 15 15 15 13 12 12 9 7
26 24 24 24 23 21 20 15 20 18 21 18 15 15 14 12 16 16 15 16 17 18 14 13 12 12 12 11 11 11 12 14 13 13 14 14 15 15 14 12 9 9 11
30 27 25 25 24 23 21 20 18 19 21 22 19 17 16 15 17 17 16 16 15 16 13 14 15 15 15 14 14 15 16 15 15 15 15 16 16 16 17 15 13 13 12
31 33 30 29 26 25 23 22 20 19 19 19 24 23 21 19 17 18 20 20 18 20 16 16 17 17 17 17 16 16 15 15 15 15 14 15 16 17 19 18 16 16 16
31 29 29 29 28 27 24 23 22 20 19 18 18 24 25 23 23 21 22 21 20 21 21 20 19 19 18 18 17 16 16 16 16 16 16 17 18 18 17 16 15 18 20
32 32 33 29 26 26 25 24 23 22 20 20 19 20 20 25 20 20 24 22 22 22 22 23 22 20 19 19 18 17 17 18 18 18 18 18 19 19 18 17 17 21 21
30 29 35 29 29 29 28 27 25 23 22 21 22 21 26 28 26 26 24 25 26 25 24 23 22 22 22 21 19 20 20 21 21 20 20 21 21 22 19 20 25 23 27
29 29 33 31 28 29 29 28 26 24 24 23 22 21 29 30 24 25 26 27 28 29 28 26 25 24 23 23 23 23 23 24 25 27 26 23 27 21 24 28 33 35 30
29 28 30 29 28 27 28 27 27 26 26 25 24 22 22 27 28 27 26 26 26 28 27 27 27 26 24 23 24 25 25 26 29 26 25 25 24 27 27 32 32 33 32
29 30 30 30 29 28 28 29 28 27 27 25 24 24 24 24 27 28 28 25 24 24 25 27 28 29 27 26 24 25 27 26 23 25 26 25 27 29 29 31 31 31 33
26 27 27 27 27 29 27 27 27 27 26 26 26 25 25 24 23 25 25 25 24 23 24 25 25 27 30 30 28 26 26 28 27 25 25 25 27 31 34 36 39 39 35
26 27 27 25 24 24 26 26 27 25 26 25 26 25 24 24 23 22 22 23 24 23 23 23 25 27 26 25 28 27 31 31 28 29 25 27 31 35 38 38 40 37 36
Wind_Direction
158 159 159 151 128 120 111 88 85 103 113 142 162 156 147 145 144 146 142 141 145 143 148 151 148 155 152 151 167 177 169 152 118 116 93 136 138 140 141 140 146 148 149
162 162 166 140 123 118 125 94 90 110 110 131 155 155 147 141 145 145 139 138 145 150 147 158 152 145 143 149 158 152 143 145 136 137 115 130 132 141 143 146 149 150 150
165 168 165 143 122 114 119 105 96 113 110 125 143 147 146 144 140 142 142 141 144 153 145 139 156 150 139 150 152 140 137 150 140 142 134 129 141 145 144 148 149 149 148
170 172 172 145 123 111 112 107 92 112 117 123 131 138 141 145 141 139 140 135 140 145 141 151 158 158 150 150 155 151 144 144 138 134 138 129 136 146 145 147 149 129 137
171 174 176 159 135 114 112 103 97 105 115 128 130 133 138 144 143 141 143 134 136 136 135 145 152 148 149 153 150 153 149 142 144 141 127 136 141 144 139 140 133 130 132
176 177 172 172 156 138 126 122 101 99 119 128 131 137 140 145 148 144 138 136 137 138 132 136 135 141 146 155 151 158 165 147 140 142 136 142 146 140 146 147 138 142 119
180 175 173 174 166 150 130 128 123 119 119 114 126 131 138 134 142 137 132 128 127 127 128 131 137 139 131 126 149 137 134 140 153 144 152 151 154 161 158 155 155 151 134
186 177 178 176 170 155 136 133 124 126 129 123 141 153 141 143 142 138 132 128 128 134 130 128 131 139 129 126 124 117 113 119 140 154 162 172 168 171 172 162 149 131 129
191 184 182 179 175 165 148 141 133 134 136 120 125 163 148 148 151 143 133 127 125 139 134 117 113 112 128 130 129 123 122 119 122 141 149 166 175 173 168 154 152 149 146
191 190 184 184 182 176 160 148 145 138 131 126 108 124 140 150 150 149 146 129 126 129 124 119 118 108 123 140 143 134 125 131 135 137 131 140 150 157 158 168 168 172 152
190 189 185 185 186 180 167 154 146 142 132 128 129 128 144 148 160 161 149 144 148 145 142 143 135 117 114 129 140 140 139 140 137 136 133 138 148 158 170 171 170 175 164
186 187 188 186 186 180 171 160 152 150 140 132 132 136 146 157 162 175 168 162 161 159 158 164 152 125 113 122 128 139 147 153 143 137 135 132 140 147 156 162 169 172 165
183 186 186 186 185 182 176 169 162 163 162 155 149 142 149 171 177 171 179 192 181 171 173 175 162 144 135 145 139 134 142 142 145 144 142 140 142 151 147 141 138 137 127
183 184 184 183 185 185 184 182 180 178 176 174 170 159 153 155 163 172 171 175 186 185 177 173 185 182 169 165 166 176 180 175 168 164 153 149 148 145 142 146 139 133 120
184 181 182 185 186 188 192 193 195 196 190 182 183 177 170 172 175 169 169 169 173 178 177 180 182 186 179 177 172 175 175 177 171 168 161 160 163 164 165 163 160 163 158
181 182 184 185 186 190 193 198 201 202 205 203 198 186 189 188 181 177 173 176 181 182 177 184 191 193 194 193 188 184 188 187 186 179 176 176 177 178 174 170 168 164 153
181 183 184 184 186 189 192 196 200 216 215 214 214 212 206 199 194 194 192 192 195 191 196 198 201 201 204 205 203 200 198 197 194 191 189 186 185 182 178 178 178 172 162
185 184 182 188 191 192 194 197 199 198 202 213 219 217 216 217 211 205 206 206 199 208 215 215 213 212 213 214 213 211 207 201 202 201 198 195 193 191 186 187 186 177 160
184 188 189 189 191 195 197 200 203 204 203 203 199 214 215 214 217 218 216 206 211 215 219 222 223 223 224 223 222 218 214 211 205 203 204 203 200 197 199 197 189 173 162
187 188 186 187 188 190 197 202 205 209 209 207 205 206 200 207 208 209 211 212 219 222 222 225 225 226 226 225 224 221 218 215 213 213 211 210 206 204 195 192 185 170 167
188 189 188 188 190 192 196 202 205 207 211 214 217 211 204 200 210 214 214 215 219 223 225 226 226 227 226 224 221 221 221 219 217 216 215 212 205 198 201 182 172 169 165
188 189 190 195 196 196 197 201 203 206 209 212 217 217 219 214 217 220 221 222 223 224 226 226 226 226 225 223 223 221 221 220 215 214 212 210 205 198 179 177 175 171 171
189 191 193 195 199 201 197 200 204 209 211 213 214 210 211 214 219 223 225 226 225 225 225 225 228 229 229 229 228 227 227 224 226 222 212 202 193 184 180 181 175 167 165
188 191 195 195 196 201 204 203 206 210 213 216 217 215 212 213 217 222 224 227 227 228 227 228 229 229 229 230 230 231 234 234 228 225 214 204 193 187 183 178 168 163 164
194 193 191 196 199 201 206 208 209 212 214 216 220 220 219 218 218 221 224 227 229 228 228 228 230 233 233 233 232 232 234 236 224 218 203 197 193 184 177 169 168 168 171
199 195 194 194 202 206 206 205 209 213 217 218 223 225 226 226 223 220 220 221 224 227 229 231 233 234 234 234 234 233 240 245 237 224 199 191 185 183 176 169 166 165 174